When you browse on this site, cookies collect data to enhance your experience and personalize the content and advertising you see.
Visit our Privacy Policy to learn more. By continuing to use the site, you agree to this use of cookies and data.
EN

Hourly Weather Nilmoguba

Today, 7 August, Friday

Time Temperature Precipitation Wind Pressure Humidity
00:00 +15°C° 0 mm 2 mps 763 mmHg 76%
01:00 +15°C° 0 mm 2 mps 764 mmHg 77%
02:00 +14°C° 0 mm 2 mps 764 mmHg 79%
03:00 +14°C° 0 mm 3 mps 764 mmHg 79%
04:00 +14°C° 0 mm 3 mps 764 mmHg 79%
05:00 +16°C° 0 mm 3 mps 764 mmHg 79%
06:00 +17°C° 0 mm 3 mps 764 mmHg 74%
07:00 +18°C° 0 mm 3 mps 764 mmHg 70%
08:00 +19°C° 0 mm 3 mps 765 mmHg 65%
09:00 +19°C° 0 mm 3 mps 764 mmHg 61%
10:00 +20°C° 0 mm 4 mps 764 mmHg 57%
11:00 +21°C° 0 mm 4 mps 764 mmHg 52%
12:00 +21°C° 0 mm 3 mps 764 mmHg 51%
13:00 +22°C° 0 mm 3 mps 764 mmHg 50%
14:00 +22°C° 0 mm 3 mps 764 mmHg 49%
15:00 +21°C° 0.3 mm 3 mps 764 mmHg 56%
16:00 +21°C° 0.3 mm 3 mps 764 mmHg 64%
17:00 +20°C° 0.3 mm 3 mps 764 mmHg 71%
18:00 +19°C° 0.2 mm 3 mps 764 mmHg 75%
19:00 +19°C° 0.2 mm 3 mps 764 mmHg 79%
20:00 +18°C° 0.2 mm 3 mps 764 mmHg 83%
21:00 +17°C° 0 mm 3 mps 764 mmHg 85%
22:00 +16°C° 0 mm 3 mps 765 mmHg 87%
23:00 +16°C° 0 mm 3 mps 765 mmHg 89%

Tomorrow, 8 August, Saturday

Time Temperature Precipitation Wind Pressure Humidity
00:00 +14°C° 0 mm 3 mps 765 mmHg 90%
01:00 +14°C° 0 mm 2 mps 765 mmHg 91%
02:00 +14°C° 0 mm 2 mps 766 mmHg 93%
03:00 +14°C° 0 mm 1 mps 766 mmHg 92%
04:00 +14°C° 0 mm 1 mps 766 mmHg 91%
05:00 +15°C° 0 mm 1 mps 766 mmHg 90%
06:00 +16°C° 0 mm 1 mps 766 mmHg 84%
07:00 +18°C° 0 mm 1 mps 766 mmHg 78%
08:00 +17°C° 0 mm 0 mps 766 mmHg 73%
09:00 +20°C° 0 mm 1 mps 766 mmHg 69%
10:00 +21°C° 0 mm 1 mps 766 mmHg 65%
11:00 +21°C° 0 mm 1 mps 765 mmHg 61%
12:00 +21°C° 0 mm 1 mps 765 mmHg 60%
13:00 +21°C° 0 mm 1 mps 765 mmHg 60%
14:00 +22°C° 0 mm 1 mps 765 mmHg 60%
15:00 +22°C° 0 mm 1 mps 764 mmHg 60%
16:00 +21°C° 0 mm 2 mps 764 mmHg 60%
17:00 +21°C° 0 mm 2 mps 764 mmHg 60%
18:00 +20°C° 0 mm 2 mps 763 mmHg 64%
19:00 +18°C° 0 mm 3 mps 763 mmHg 68%
20:00 +17°C° 0 mm 3 mps 763 mmHg 73%
21:00 +17°C° 0 mm 3 mps 763 mmHg 76%
22:00 +16°C° 0 mm 3 mps 763 mmHg 79%
23:00 +14°C° 0 mm 3 mps 762 mmHg 82%

Day after tomorrow, 9 August, Sunday

Time Temperature Precipitation Wind Pressure Humidity
00:00 +14°C° 0 mm 3 mps 762 mmHg 82%
01:00 +14°C° 0 mm 3 mps 762 mmHg 82%
02:00 +14°C° 0 mm 3 mps 762 mmHg 82%
03:00 +14°C° 0 mm 3 mps 762 mmHg 82%
04:00 +14°C° 0 mm 3 mps 761 mmHg 82%
05:00 +15°C° 0 mm 2 mps 761 mmHg 82%
06:00 +16°C° 0.1 mm 2 mps 761 mmHg 82%
07:00 +16°C° 0.1 mm 2 mps 760 mmHg 82%
08:00 +17°C° 0.1 mm 2 mps 760 mmHg 82%
09:00 +18°C° 0.1 mm 2 mps 760 mmHg 80%
10:00 +19°C° 0.1 mm 2 mps 760 mmHg 78%
11:00 +20°C° 0.1 mm 3 mps 759 mmHg 75%
12:00 +20°C° 0.2 mm 3 mps 759 mmHg 75%
13:00 +20°C° 0.2 mm 3 mps 759 mmHg 74%
14:00 +21°C° 0.2 mm 4 mps 758 mmHg 73%
15:00 +20°C° 0.2 mm 4 mps 758 mmHg 76%
16:00 +19°C° 0.2 mm 4 mps 758 mmHg 79%
17:00 +19°C° 0.2 mm 4 mps 757 mmHg 82%
18:00 +18°C° 0.1 mm 4 mps 757 mmHg 84%
19:00 +18°C° 0.1 mm 4 mps 757 mmHg 86%
20:00 +18°C° 0.1 mm 4 mps 757 mmHg 89%
21:00 +17°C° 0.4 mm 4 mps 757 mmHg 90%
22:00 +15°C° 0.4 mm 4 mps 757 mmHg 92%
23:00 +15°C° 0.4 mm 4 mps 758 mmHg 94%

10 August, Monday

Time Temperature Precipitation Wind Pressure Humidity
00:00 +15°C° 0.4 mm 4 mps 758 mmHg 94%
01:00 +14°C° 0.4 mm 4 mps 758 mmHg 94%
02:00 +14°C° 0.4 mm 3 mps 758 mmHg 94%
03:00 +14°C° 1.4 mm 4 mps 758 mmHg 94%
04:00 +14°C° 1.4 mm 4 mps 758 mmHg 94%
05:00 +14°C° 1.4 mm 4 mps 758 mmHg 95%
06:00 +13°C° 2.4 mm 6 mps 759 mmHg 95%
07:00 +12°C° 2.4 mm 7 mps 759 mmHg 95%
08:00 +12°C° 2.4 mm 8 mps 759 mmHg 95%
09:00 +12°C° 1 mm 8 mps 760 mmHg 94%
10:00 +12°C° 1 mm 8 mps 760 mmHg 93%
11:00 +12°C° 1 mm 8 mps 761 mmHg 92%
12:00 +12°C° 0.9 mm 8 mps 761 mmHg 91%
13:00 +12°C° 0.9 mm 8 mps 762 mmHg 90%
14:00 +11°C° 0.9 mm 7 mps 762 mmHg 90%
15:00 +11°C° 0.4 mm 7 mps 763 mmHg 89%
16:00 +11°C° 0.4 mm 6 mps 763 mmHg 88%
17:00 +12°C° 0.4 mm 5 mps 764 mmHg 88%
18:00 +12°C° 0.1 mm 5 mps 764 mmHg 87%
19:00 +12°C° 0.1 mm 5 mps 765 mmHg 87%
20:00 +12°C° 0.1 mm 5 mps 765 mmHg 87%
21:00 +12°C° 0 mm 5 mps 766 mmHg 86%
22:00 +12°C° 0 mm 5 mps 766 mmHg 86%
23:00 +11°C° 0 mm 4 mps 767 mmHg 85%

11 August, Tuesday

Time Temperature Precipitation Wind Pressure Humidity
00:00 +11°C° 0 mm 4 mps 767 mmHg 85%
01:00 +11°C° 0 mm 4 mps 767 mmHg 85%
02:00 +11°C° 0 mm 4 mps 767 mmHg 85%
03:00 +10°C° 0 mm 4 mps 767 mmHg 84%
04:00 +10°C° 0 mm 3 mps 767 mmHg 83%
05:00 +10°C° 0 mm 3 mps 767 mmHg 82%
06:00 +11°C° 0.1 mm 4 mps 767 mmHg 81%
07:00 +11°C° 0.1 mm 4 mps 767 mmHg 79%
08:00 +11°C° 0.1 mm 4 mps 767 mmHg 78%
09:00 +11°C° 0.1 mm 4 mps 768 mmHg 79%
10:00 +12°C° 0.1 mm 4 mps 768 mmHg 80%
11:00 +12°C° 0.1 mm 4 mps 768 mmHg 80%
12:00 +13°C° 0 mm 4 mps 768 mmHg 74%
13:00 +14°C° 0 mm 4 mps 768 mmHg 68%
14:00 +15°C° 0 mm 4 mps 768 mmHg 62%
15:00 +14°C° 0 mm 3 mps 768 mmHg 63%
16:00 +15°C° 0 mm 2 mps 768 mmHg 64%
17:00 +15°C° 0 mm 2 mps 768 mmHg 65%
18:00 +14°C° 0 mm 2 mps 768 mmHg 69%
19:00 +13°C° 0 mm 2 mps 768 mmHg 73%
20:00 +12°C° 0 mm 1 mps 768 mmHg 77%
21:00 +12°C° 0 mm 2 mps 768 mmHg 77%
22:00 +10°C° 0 mm 2 mps 769 mmHg 78%
23:00 +10°C° 0 mm 2 mps 769 mmHg 78%

12 August, Wednesday

Time Temperature Precipitation Wind Pressure Humidity
00:00 +10°C° 0 mm 2 mps 769 mmHg 78%
01:00 +11°C° 0 mm 1 mps 769 mmHg 77%
02:00 +10°C° 0 mm 1 mps 769 mmHg 77%
03:00 +10°C° 0 mm 1 mps 769 mmHg 78%
04:00 +10°C° 0 mm 1 mps 769 mmHg 78%
05:00 +10°C° 0 mm 1 mps 769 mmHg 79%
06:00 +12°C° 0 mm 1 mps 769 mmHg 73%
07:00 +12°C° 0 mm 0 mps 768 mmHg 67%
08:00 +14°C° 0 mm 0 mps 768 mmHg 61%
09:00 +15°C° 0 mm 1 mps 768 mmHg 59%
10:00 +16°C° 0 mm 1 mps 768 mmHg 57%
11:00 +16°C° 0 mm 1 mps 768 mmHg 55%
12:00 +16°C° 0 mm 1 mps 768 mmHg 55%
13:00 +16°C° 0 mm 1 mps 767 mmHg 55%
14:00 +16°C° 0 mm 1 mps 767 mmHg 55%
15:00 +16°C° 0 mm 1 mps 767 mmHg 55%
16:00 +16°C° 0 mm 1 mps 767 mmHg 56%
17:00 +16°C° 0 mm 1 mps 767 mmHg 56%
18:00 +15°C° 0 mm 1 mps 767 mmHg 60%
19:00 +14°C° 0 mm 1 mps 766 mmHg 64%
20:00 +13°C° 0 mm 1 mps 766 mmHg 69%
21:00 +13°C° 0 mm 1 mps 766 mmHg 71%
22:00 +12°C° 0 mm 2 mps 766 mmHg 73%
23:00 +12°C° 0 mm 2 mps 767 mmHg 75%
Show more